This is the latest recevied weather packets stored in our database for station/object JS2WAD-13. If no packets are shown the sender has not sent any weather packets the latest 10 day(s).
| Time | Temp. | Humidity | Pressure | Rain* | Wind** | Luminosity | Snow |
|---|---|---|---|---|---|---|---|
| 1778115978 | 21.67° C | 67% | 904.2 hPa | 0 mm | - | 97 W/m² | - |
| 1778115678 | 21.67° C | 68% | 904.2 hPa | 0 mm | - | 72 W/m² | - |
| 1778115378 | 21.67° C | 68% | 904.2 hPa | 0 mm | - | 44 W/m² | - |
| 1778115078 | 21.11° C | 68% | 904.3 hPa | 0 mm | - | 49 W/m² | - |
| 1778114778 | 21.11° C | 70% | 904.2 hPa | 0 mm | - | 40 W/m² | - |
| 1778114478 | 21.11° C | 72% | 904.3 hPa | 0 mm | - | 54 W/m² | - |
| 1778114178 | 21.11° C | 70% | 904.4 hPa | 0 mm | - | 65 W/m² | - |
| 1778113878 | 20.56° C | 71% | 904.3 hPa | 0 mm | - | 69 W/m² | - |
| 1778113578 | 20.56° C | 77% | 904.9 hPa | 0 mm | - | 53 W/m² | - |
| 1778113278 | 20.56° C | 72% | 904.8 hPa | 0 mm | - | 39 W/m² | - |
| 1778112978 | 20.56° C | 71% | 904.9 hPa | 0 mm | - | 35 W/m² | - |
| 1778112678 | 20.56° C | 71% | 904.6 hPa | 0 mm | - | 37 W/m² | - |
| 1778112378 | 20.56° C | 72% | 904.9 hPa | 0 mm | - | 44 W/m² | - |
| 1778112078 | 20° C | 72% | 905.3 hPa | 0 mm | - | 86 W/m² | - |
| 1778111778 | 20° C | 73% | 905.2 hPa | 0 mm | - | 104 W/m² | - |
| 1778111478 | 20° C | 74% | 905.5 hPa | 0 mm | - | 107 W/m² | - |
| 1778111178 | 20° C | 74% | 905.2 hPa | 0 mm | - | 114 W/m² | - |
| 1778110878 | 20° C | 76% | 904.9 hPa | 0 mm | - | 107 W/m² | - |
| 1778110578 | 20° C | 77% | 905.2 hPa | 0 mm | - | 107 W/m² | - |
| 1778110278 | 20° C | 77% | 905.4 hPa | 0 mm | - | 111 W/m² | - |
| 1778109978 | 20° C | 82% | 905.4 hPa | 0 mm | - | 141 W/m² | - |
| 1778109678 | 19.44° C | 84% | 905.2 hPa | 0 mm | - | 118 W/m² | - |
| 1778109378 | 19.44° C | 77% | 905.5 hPa | 0 mm | - | 81 W/m² | - |
| 1778109078 | 19.44° C | 83% | 905.5 hPa | 0 mm | - | 91 W/m² | - |
| 1778108778 | 19.44° C | 81% | 905.6 hPa | 0 mm | - | 91 W/m² | - |
* Rain latest hour (hover to see other rain measurements)
** Current wind speed in m/s (hover to see current wind gust speed)